Franklin, PA

10:34 AM EDT on October 22, 2019 (GMT -0400)
Venango Regional

Weather History for KFKL - August, 2019

Change the Weather History Date:

Friday, August 9, 2019

  Actual Average Record
Temperature  
Mean Temperature 66 °F -  
Max Temperature 73 °F 80 °F 94 °F (1931)
Min Temperature 57 °F 58 °F 45 °F (1989)
Cooling Degree Days 1    
Growing Degree Days 16 (Base 50)    
Moisture  
Dew Point 55 °F    
Average Humidity 70    
Maximum Humidity 93    
Minimum Humidity 44    
Precipitation  
Precipitation 0.00 in - - ()
Sea Level Pressure  
Sea Level Pressure 29.88 in    
Wind  
Wind Speed 6 mph (West)    
Max Wind Speed 13 mph    
Max Gust Speed 21 mph    
Visibility 10 miles    
Events      
Averages and records for this station are not official NWS values.
T = Trace of Precipitation, MM = Missing Value Source: NWS Daily Summary

Daily Weather History Graph

Daily Weather History Graph

Search for Another Location

Airport or City:

Astronomy

Aug. 09, 2019 Rise Set
Actual Time 6:22 AM EDT 8:27 PM EDT
Civil Twilight 5:51 AM EDT 8:57 PM EDT
Nautical Twilight 5:14 AM EDT 9:34 PM EDT
Astronomical Twilight 4:33 AM EDT 10:14 PM EDT
Moon 4:07 PM EDT (8/9) 1:18 AM EDT (8/9)
Length of Visible Light 15h 05m
Length of Day
14h 04m
Waxing Gibbous, 70% of the Moon is Illuminated
Aug 9
Waxing Gibbous
Aug 15
Full
Aug 23
Last Quarter
Aug 30
New
Sep 5
First Quarter

Hourly Weather History & Observations

Time (EDT) Temp. Dew Point Humidity Pressure Visibility Wind Dir Wind Speed Gust Speed Precip Events Conditions
12:56 AM 62.1 °F 57.9 °F 86% 29.82 in 10.0 mi SW 6.9 mph - N/A   Clear
1:56 AM 63.0 °F 57.9 °F 84% 29.81 in 10.0 mi WSW 6.9 mph - N/A   Scattered Clouds
2:56 AM 61.0 °F 57.0 °F 87% 29.81 in 10.0 mi West 5.8 mph - N/A   Clear
3:56 AM 59.0 °F 57.0 °F 93% 29.82 in 10.0 mi WSW 5.8 mph - N/A   Scattered Clouds
4:56 AM 60.1 °F 57.9 °F 93% 29.82 in 10.0 mi West 4.6 mph - N/A   Mostly Cloudy
5:56 AM 61.0 °F 57.9 °F 90% 29.84 in 10.0 mi Calm Calm - N/A   Scattered Clouds
6:56 AM 60.1 °F 57.9 °F 93% 29.87 in 10.0 mi Calm Calm - N/A   Scattered Clouds
7:56 AM 63.0 °F 60.1 °F 90% 29.88 in 10.0 mi Calm Calm - N/A   Mostly Cloudy
8:56 AM 66.0 °F 57.0 °F 73% 29.88 in 10.0 mi Calm Calm - N/A   Scattered Clouds
9:56 AM 69.1 °F 55.9 °F 63% 29.89 in 10.0 mi NE 3.5 mph - N/A   Partly Cloudy
10:56 AM 71.1 °F 55.9 °F 59% 29.90 in 10.0 mi WNW 8.1 mph - N/A   Partly Cloudy
11:56 AM 71.1 °F 54.0 °F 55% 29.90 in 10.0 mi Variable 4.6 mph - N/A   Mostly Cloudy
12:56 PM 72.0 °F 55.0 °F 55% 29.90 in 10.0 mi WNW 8.1 mph 16.1 mph N/A   Scattered Clouds
1:56 PM 73.0 °F 55.9 °F 55% 29.90 in 10.0 mi NW 9.2 mph 17.3 mph N/A   Mostly Cloudy
2:56 PM 73.0 °F 52.0 °F 48% 29.89 in 10.0 mi WNW 12.7 mph 20.7 mph N/A   Scattered Clouds
3:56 PM 73.0 °F 50.0 °F 44% 29.90 in 10.0 mi NW 10.4 mph - N/A   Clear
4:56 PM 73.0 °F 51.1 °F 46% 29.90 in 10.0 mi NNW 8.1 mph - N/A   Partly Cloudy
5:56 PM 73.0 °F 52.0 °F 48% 29.90 in 10.0 mi WNW 8.1 mph - N/A   Clear
6:56 PM 70.0 °F 51.1 °F 51% 29.91 in 10.0 mi WNW 6.9 mph - N/A   Clear
7:56 PM 68.0 °F 53.1 °F 59% 29.91 in 10.0 mi West 4.6 mph - N/A   Clear
8:56 PM 64.0 °F 53.1 °F 67% 29.92 in 10.0 mi West 3.5 mph - N/A   Clear
9:56 PM 62.1 °F 53.1 °F 72% 29.93 in 10.0 mi West 5.8 mph - N/A   Clear
10:56 PM 61.0 °F 53.1 °F 75% 29.93 in 10.0 mi WSW 4.6 mph - N/A   Clear
11:56 PM 57.0 °F 54.0 °F 89% 29.93 in 10.0 mi SW 5.8 mph - N/A   Clear